• In Russia
  • List of Countries
  • For 7 days
  • Water Temperature
  • Weather Map
  • Weather Widgets
  • user-avatar
    Login

    Hourly Weather Goiania

    Today, 15 December, Sunday

    Time Temperature Precipitation Wind Pressure Humidity
    00:00 +23°C° 0 mm 2 mps 699 mmHg 91%
    01:00 +23°C° 0 mm 2 mps 699 mmHg 90%
    02:00 +21°C° 0 mm 2 mps 699 mmHg 90%
    03:00 +21°C° 0 mm 2 mps 698 mmHg 89%
    04:00 +21°C° 0 mm 2 mps 698 mmHg 88%
    05:00 +20°C° 0 mm 2 mps 699 mmHg 88%
    06:00 +20°C° 0 mm 2 mps 699 mmHg 87%
    07:00 +22°C° 0 mm 3 mps 699 mmHg 83%
    08:00 +25°C° 0 mm 4 mps 700 mmHg 80%
    09:00 +26°C° 0 mm 4 mps 701 mmHg 76%
    10:00 +28°C° 0 mm 4 mps 700 mmHg 72%
    11:00 +29°C° 0 mm 4 mps 700 mmHg 68%
    12:00 +30°C° 0 mm 4 mps 700 mmHg 64%
    13:00 +30°C° 0 mm 4 mps 700 mmHg 63%
    14:00 +31°C° 0 mm 3 mps 699 mmHg 62%
    15:00 +31°C° 0 mm 3 mps 698 mmHg 62%
    16:00 +30°C° 0.3 mm 2 mps 698 mmHg 67%
    17:00 +29°C° 0.3 mm 2 mps 698 mmHg 73%
    18:00 +28°C° 0.3 mm 2 mps 698 mmHg 78%
    19:00 +26°C° 0 mm 2 mps 698 mmHg 81%
    20:00 +25°C° 0 mm 2 mps 698 mmHg 83%
    21:00 +24°C° 0 mm 2 mps 699 mmHg 85%
    22:00 +24°C° 0 mm 2 mps 699 mmHg 86%
    23:00 +23°C° 0 mm 2 mps 698 mmHg 87%

    Tomorrow, 16 December, Monday

    Time Temperature Precipitation Wind Pressure Humidity
    00:00 +23°C° 0 mm 2 mps 698 mmHg 88%
    01:00 +23°C° 0 mm 2 mps 698 mmHg 88%
    02:00 +23°C° 0 mm 2 mps 697 mmHg 88%
    03:00 +21°C° 0 mm 3 mps 697 mmHg 88%
    04:00 +21°C° 0 mm 3 mps 697 mmHg 87%
    05:00 +21°C° 0 mm 2 mps 697 mmHg 86%
    06:00 +20°C° 0 mm 2 mps 697 mmHg 85%
    07:00 +22°C° 0 mm 3 mps 698 mmHg 80%
    08:00 +25°C° 0 mm 3 mps 699 mmHg 76%
    09:00 +27°C° 0 mm 4 mps 699 mmHg 72%
    10:00 +28°C° 0 mm 4 mps 699 mmHg 68%
    11:00 +29°C° 0 mm 3 mps 699 mmHg 63%
    12:00 +30°C° 0 mm 3 mps 699 mmHg 59%
    13:00 +31°C° 0 mm 3 mps 698 mmHg 58%
    14:00 +31°C° 0 mm 3 mps 698 mmHg 57%
    15:00 +31°C° 0 mm 2 mps 697 mmHg 56%
    16:00 +30°C° 0 mm 2 mps 697 mmHg 62%
    17:00 +29°C° 0 mm 2 mps 696 mmHg 67%
    18:00 +28°C° 0 mm 1 mps 696 mmHg 72%
    19:00 +27°C° 0 mm 1 mps 696 mmHg 75%
    20:00 +25°C° 0 mm 1 mps 696 mmHg 77%
    21:00 +24°C° 0 mm 1 mps 697 mmHg 80%
    22:00 +24°C° 0 mm 1 mps 697 mmHg 81%
    23:00 +23°C° 0 mm 1 mps 697 mmHg 82%

    Day after tomorrow, 17 December, Tuesday

    Time Temperature Precipitation Wind Pressure Humidity
    00:00 +23°C° 0 mm 1 mps 696 mmHg 83%
    01:00 +22°C° 0 mm 1 mps 696 mmHg 84%
    02:00 +22°C° 0 mm 1 mps 696 mmHg 84%
    03:00 +22°C° 0 mm 1 mps 696 mmHg 85%
    04:00 +22°C° 0 mm 1 mps 696 mmHg 85%
    05:00 +21°C° 0 mm 1 mps 696 mmHg 85%
    06:00 +21°C° 0 mm 1 mps 696 mmHg 85%
    07:00 +23°C° 0 mm 2 mps 697 mmHg 80%
    08:00 +25°C° 0 mm 2 mps 698 mmHg 74%
    09:00 +27°C° 0 mm 3 mps 698 mmHg 69%
    10:00 +29°C° 0 mm 3 mps 698 mmHg 64%
    11:00 +30°C° 0 mm 3 mps 698 mmHg 59%
    12:00 +31°C° 0 mm 3 mps 698 mmHg 54%
    13:00 +31°C° 0 mm 3 mps 697 mmHg 55%
    14:00 +31°C° 0 mm 3 mps 697 mmHg 56%
    15:00 +31°C° 0 mm 3 mps 696 mmHg 57%
    16:00 +30°C° 0.1 mm 3 mps 696 mmHg 62%
    17:00 +29°C° 0.1 mm 2 mps 695 mmHg 67%
    18:00 +28°C° 0.1 mm 2 mps 695 mmHg 72%
    19:00 +27°C° 0 mm 1 mps 695 mmHg 73%
    20:00 +25°C° 0 mm 1 mps 696 mmHg 75%
    21:00 +24°C° 0 mm 1 mps 696 mmHg 76%
    22:00 +24°C° 0 mm 1 mps 696 mmHg 78%
    23:00 +23°C° 0 mm 1 mps 696 mmHg 79%

    18 December, Wednesday

    Time Temperature Precipitation Wind Pressure Humidity
    00:00 +23°C° 0 mm 1 mps 697 mmHg 80%
    01:00 +23°C° 0 mm 1 mps 696 mmHg 80%
    02:00 +23°C° 0 mm 1 mps 696 mmHg 81%
    03:00 +22°C° 0 mm 1 mps 696 mmHg 82%
    04:00 +22°C° 0 mm 1 mps 696 mmHg 82%
    05:00 +22°C° 0 mm 1 mps 696 mmHg 82%
    06:00 +22°C° 0 mm 1 mps 697 mmHg 82%
    07:00 +24°C° 0.1 mm 1 mps 697 mmHg 78%
    08:00 +24°C° 0.1 mm 0 mps 698 mmHg 74%
    09:00 +26°C° 0.1 mm 0 mps 699 mmHg 70%
    10:00 +27°C° 0.4 mm 0 mps 698 mmHg 66%
    11:00 +30°C° 0.4 mm 1 mps 698 mmHg 62%
    12:00 +31°C° 0.4 mm 1 mps 698 mmHg 58%
    13:00 +30°C° 0.4 mm 2 mps 697 mmHg 60%
    14:00 +30°C° 0.4 mm 2 mps 697 mmHg 62%
    15:00 +30°C° 0.4 mm 2 mps 696 mmHg 65%
    16:00 +29°C° 0.4 mm 2 mps 696 mmHg 69%
    17:00 +28°C° 0.4 mm 1 mps 696 mmHg 73%
    18:00 +27°C° 0.4 mm 1 mps 696 mmHg 77%
    19:00 +26°C° 0.1 mm 1 mps 697 mmHg 78%
    20:00 +25°C° 0.1 mm 1 mps 697 mmHg 79%
    21:00 +22°C° 0.1 mm 0 mps 697 mmHg 79%
    22:00 +24°C° 0 mm 1 mps 698 mmHg 80%
    23:00 +24°C° 0 mm 1 mps 698 mmHg 81%

    19 December, Thursday

    Time Temperature Precipitation Wind Pressure Humidity
    00:00 +23°C° 0 mm 1 mps 698 mmHg 82%
    01:00 +23°C° 0.1 mm 1 mps 697 mmHg 83%
    02:00 +22°C° 0.1 mm 1 mps 697 mmHg 85%
    03:00 +20°C° 0.1 mm 0 mps 696 mmHg 86%
    04:00 +22°C° 0 mm 1 mps 697 mmHg 86%
    05:00 +22°C° 0 mm 1 mps 697 mmHg 86%
    06:00 +22°C° 0 mm 1 mps 697 mmHg 86%
    07:00 +24°C° 0 mm 1 mps 698 mmHg 80%
    08:00 +26°C° 0 mm 1 mps 698 mmHg 75%
    09:00 +28°C° 0 mm 2 mps 699 mmHg 69%
    10:00 +30°C° 0 mm 2 mps 699 mmHg 63%
    11:00 +31°C° 0 mm 2 mps 699 mmHg 58%
    12:00 +32°C° 0 mm 2 mps 699 mmHg 52%
    13:00 +32°C° 0.2 mm 2 mps 698 mmHg 54%
    14:00 +31°C° 0.2 mm 2 mps 698 mmHg 56%
    15:00 +31°C° 0.2 mm 2 mps 697 mmHg 59%
    16:00 +30°C° 0.7 mm 2 mps 697 mmHg 65%
    17:00 +29°C° 0.7 mm 1 mps 697 mmHg 72%
    18:00 +27°C° 0.7 mm 1 mps 697 mmHg 79%
    19:00 +26°C° 0.8 mm 1 mps 697 mmHg 81%
    20:00 +25°C° 0.8 mm 1 mps 698 mmHg 83%
    21:00 +24°C° 0.8 mm 1 mps 698 mmHg 85%
    22:00 +23°C° 0.2 mm 1 mps 698 mmHg 86%
    23:00 +23°C° 0.2 mm 1 mps 698 mmHg 86%

    20 December, Friday

    Time Temperature Precipitation Wind Pressure Humidity
    00:00 +23°C° 0.2 mm 1 mps 698 mmHg 87%
    01:00 +23°C° 0.3 mm 1 mps 698 mmHg 87%
    02:00 +22°C° 0.3 mm 1 mps 697 mmHg 87%
    03:00 +22°C° 0.3 mm 1 mps 697 mmHg 88%
    04:00 +22°C° 0.1 mm 1 mps 697 mmHg 88%
    05:00 +22°C° 0.1 mm 1 mps 697 mmHg 89%
    06:00 +22°C° 0.1 mm 1 mps 697 mmHg 90%
    07:00 +24°C° 0.1 mm 2 mps 698 mmHg 85%
    08:00 +26°C° 0.1 mm 2 mps 699 mmHg 81%
    09:00 +27°C° 0.1 mm 3 mps 699 mmHg 76%
    10:00 +28°C° 1 mm 3 mps 699 mmHg 74%
    11:00 +29°C° 1 mm 3 mps 699 mmHg 72%
    12:00 +30°C° 1 mm 3 mps 699 mmHg 71%
    13:00 +30°C° 1.6 mm 2 mps 698 mmHg 71%
    14:00 +30°C° 1.6 mm 1 mps 697 mmHg 72%
    15:00 +30°C° 1.6 mm 1 mps 697 mmHg 73%
    16:00 +29°C° 0.4 mm 1 mps 697 mmHg 75%
    17:00 +28°C° 0.4 mm 1 mps 697 mmHg 77%
    18:00 +27°C° 0.4 mm 1 mps 697 mmHg 79%
    19:00 +26°C° 0.2 mm 1 mps 697 mmHg 81%
    20:00 +25°C° 0.2 mm 2 mps 698 mmHg 83%
    21:00 +24°C° 0.2 mm 2 mps 698 mmHg 85%
    22:00 +24°C° 0 mm 2 mps 698 mmHg 85%
    23:00 +23°C° 0 mm 2 mps 698 mmHg 86%
    Show more